User: anonymous   Login
Location: Geremba
(10.4250°N, 67.2394°W)
Time: 17:40:38
(UTC+00:00)
Language:

Okean O Rocket - Orbit

View from above orbital plane
View from above orbital plane
View from above satellite
View from above satellite

Ground track
Ground track

The orbit data is extracted from the following two-line orbital elements,

1 25861U 99039B   24196.13537970  .00001191  00000-0  16356-3 0  9995
2 25861  98.0866 242.3012 0016257  55.3211 304.9529 14.80179024347656
Epoch (UTC): 14 July 2024 03:14:56
Eccentricity: 0.0016257
inclination: 98.0866°
perigee height: 617 km
apogee height: 640 km
right ascension of ascending node: 242.3012°
argument of perigee: 55.3211°
revolutions per day: 14.80179024
mean anomaly at epoch: 304.9529°
orbit number at epoch: 34765

The dashed part of the orbit path shows where the satellite is in the earth's shadow,  

DLR